Wind_Speed
46 45 45 45 45 44 43 42 42 43 43 43 44 46 48 49 50 51 53 54 56 57 58 58 59 59 60 61 61 62 62 64 65 66 67 68 69 70 70 71 71 71 71 71 70 69 69 70 70 71 72 73 73 74 75 76 77 78 78 79 79 80 80 80 81 82 81 81 81 81 82 82 83 83 83 84 84 85 85 86 86 86 86 86 87
45 45 45 44 43 42 41 41 42 43 44 45 46 47 49 50 51 52 54 55 57 58 59 60 61 62 63 64 64 64 64 66 67 68 69 70 71 71 72 72 72 72 72 71 71 71 71 71 72 73 74 75 75 76 77 77 78 79 80 80 80 81 81 81 81 82 82 81 81 81 81 81 82 83 84 84 84 85 85 86 86 86 87 87 87
44 44 44 42 41 41 41 42 43 45 46 47 47 48 49 51 52 54 56 57 59 60 61 62 63 64 65 66 66 66 67 68 69 70 71 71 72 72 72 72 72 72 72 72 72 72 73 73 74 75 76 77 77 78 78 79 79 80 80 80 80 80 80 81 82 82 82 83 83 83 82 82 82 83 85 85 85 85 85 86 86 87 87 88 88
43 43 42 41 41 42 43 44 45 47 48 48 49 50 51 53 54 56 58 59 60 61 62 63 63 64 65 66 67 68 69 71 71 71 72 72 72 72 72 72 72 72 72 73 73 74 74 75 76 76 77 77 78 78 79 79 80 80 81 81 81 81 81 81 82 83 83 84 85 85 85 85 83 83 85 85 86 86 86 87 87 87 87 88 89
41 41 41 42 43 44 45 46 47 49 50 51 53 54 55 56 57 59 60 61 62 62 62 63 63 64 65 66 67 68 70 71 72 72 72 73 73 73 74 74 74 74 74 75 75 76 76 76 77 77 77 78 78 78 79 79 80 81 81 82 82 82 82 82 82 83 84 85 86 86 86 87 86 86 86 85 86 87 87 88 88 88 88 88 89
39 40 42 43 45 46 47 48 49 51 53 54 56 57 58 59 60 61 62 62 62 62 62 63 64 65 66 67 68 68 69 70 72 73 73 74 74 74 75 76 77 77 77 77 77 77 77 78 78 78 78 78 79 79 80 80 81 81 82 83 83 84 84 83 83 84 85 85 86 86 87 88 88 88 88 87 87 87 88 89 90 90 90 90 91
40 42 44 45 47 48 50 51 52 54 56 58 59 60 61 62 62 63 63 63 63 63 64 65 66 67 68 68 69 70 70 70 71 73 74 75 76 76 77 78 79 79 79 79 79 79 80 80 80 79 79 80 80 81 81 81 82 82 83 84 84 84 85 84 84 85 85 85 87 88 88 89 89 90 90 91 90 88 89 90 91 91 92 93 93
42 44 46 48 49 50 52 53 55 57 58 60 61 61 62 63 64 64 64 65 65 66 67 68 69 69 70 71 71 72 72 72 72 73 75 77 78 78 79 80 80 81 81 82 82 82 82 82 82 81 81 81 82 82 82 83 83 84 84 85 85 85 86 86 85 86 87 87 88 89 89 90 91 91 92 93 93 91 90 91 92 93 94 95 95
44 45 47 49 50 52 53 55 57 58 60 61 62 62 63 64 65 66 67 67 68 69 70 70 71 72 73 73 74 74 75 75 75 76 76 78 79 80 81 82 83 84 84 84 84 84 84 84 84 83 83 83 83 83 84 84 85 85 85 86 86 86 87 87 87 87 88 89 89 90 91 91 92 92 93 94 95 95 93 92 94 96 96 96 97
46 47 49 50 52 53 55 56 58 59 60 61 62 63 65 66 68 69 70 71 72 72 72 73 73 74 75 76 77 77 78 79 79 79 79 80 81 81 82 83 84 85 86 86 86 86 86 86 86 86 85 85 85 85 85 85 85 86 86 86 87 87 87 88 88 88 89 90 90 91 92 92 93 94 94 95 96 97 96 95 95 97 98 98 98
48 50 51 52 53 54 56 57 58 59 60 62 63 64 66 68 70 72 74 75 74 74 74 74 75 76 77 78 79 80 81 82 82 82 82 83 84 84 84 84 85 85 86 86 87 87 88 87 87 87 87 87 87 87 86 86 86 86 87 87 87 88 88 89 89 89 90 90 91 92 93 93 94 95 95 97 98 99 99 98 97 98 99 99 99
50 51 52 53 54 55 55 56 57 59 61 62 63 64 67 70 72 74 75 75 74 74 75 76 78 79 80 81 82 82 83 84 85 85 85 85 85 85 85 85 85 85 85 86 86 87 88 87 88 88 88 88 88 88 88 88 87 87 87 87 87 88 88 89 89 89 90 90 90 91 92 93 94 95 95 96 97 98 99 99 98 99 100 98 98
52 52 52 53 53 54 55 57 58 59 61 62 64 67 70 73 74 74 74 75 76 77 78 80 81 82 84 85 86 86 86 86 87 87 87 87 87 87 87 87 87 86 86 86 87 87 88 87 87 87 87 87 87 88 88 88 88 87 87 86 86 87 87 88 88 88 88 89 89 90 91 91 91 91 92 93 94 94 96 96 96 97 97 96 96
52 52 52 53 54 55 56 58 59 61 63 66 68 71 73 73 73 74 75 76 78 80 81 82 83 84 85 86 87 87 87 87 88 88 88 89 89 89 89 89 89 89 89 89 88 88 88 88 87 87 86 86 86 86 86 87 87 87 87 86 86 86 86 87 86 86 86 87 88 88 88 88 88 88 89 90 91 92 93 94 94 95 95 93 93
51 51 52 54 55 57 58 60 63 66 68 70 71 72 71 72 73 74 76 78 79 80 81 81 82 82 83 84 85 86 86 87 87 88 89 89 89 89 89 90 90 90 89 89 89 89 88 88 87 87 86 86 85 85 85 85 86 86 86 86 86 86 86 85 85 85 85 86 86 86 86 85 85 86 88 88 90 91 92 93 94 94 95 93 91
50 51 54 56 58 60 62 65 67 68 69 69 69 70 71 72 74 75 76 77 77 77 78 78 79 79 81 82 83 84 84 85 86 87 87 88 88 88 88 88 88 88 87 87 86 86 86 86 85 85 85 84 84 84 84 84 84 84 84 84 84 84 84 83 83 83 83 83 83 83 83 83 84 85 86 87 89 90 91 93 93 93 93 92 91
50 53 56 59 61 63 65 66 66 67 67 68 69 71 72 73 73 73 73 73 73 74 74 75 75 76 77 78 80 81 82 82 83 83 84 85 85 86 85 85 85 84 84 83 83 82 82 82 81 81 81 81 81 81 82 82 82 82 81 81 80 80 81 81 81 81 80 80 80 80 81 81 82 84 85 86 87 89 90 92 92 92 92 91 89
52 56 58 60 61 62 63 64 65 67 68 69 70 71 71 70 69 69 69 69 70 70 71 72 73 74 75 76 77 78 79 79 80 80 81 81 82 82 82 81 81 80 80 79 79 78 78 78 78 78 77 78 78 78 79 79 79 79 78 78 77 77 78 78 79 79 77 77 77 78 79 80 81 82 83 84 86 88 89 91 91 90 90 89 88
54 56 57 58 59 61 62 64 65 67 67 68 67 66 65 64 65 65 66 67 68 69 70 71 72 73 74 76 76 77 78 78 78 79 79 79 79 79 79 78 77 77 77 76 76 76 75 75 75 75 75 75 75 75 75 75 76 75 75 74 74 75 76 75 75 76 75 75 75 76 77 79 80 81 82 83 85 87 88 88 89 88 87 86 85
54 55 57 58 59 61 63 64 65 64 63 62 61 60 61 62 63 64 65 66 67 69 70 71 73 74 76 77 78 78 78 78 78 78 77 77 77 76 76 76 75 75 75 75 74 74 74 74 74 73 73 72 72 72 72 73 73 73 73 73 72 72 73 72 72 73 73 73 74 75 76 78 79 80 81 82 84 85 86 86 86 85 83 81 80
55 56 57 59 61 62 63 62 61 59 58 58 58 59 60 61 62 64 65 66 68 70 71 73 74 76 77 77 78 78 78 77 77 77 77 76 75 74 74 74 74 74 74 74 74 73 73 73 72 71 71 70 70 70 71 71 72 72 71 71 70 70 70 69 70 70 71 72 73 73 75 76 77 79 80 81 82 83 84 85 84 81 77 73 72
56 58 59 60 61 61 59 57 56 56 56 57 58 59 61 62 64 66 67 69 70 72 73 74 75 76 77 77 77 77 77 77 77 77 77 76 75 74 73 73 73 73 74 74 73 73 72 72 71 70 70 69 69 69 70 70 71 70 69 68 68 68 68 68 68 68 69 70 71 72 73 74 76 77 78 78 80 82 83 81 77 72 67 64 63
58 59 60 61 59 57 55 54 55 56 57 58 59 61 63 65 67 68 69 71 72 73 74 75 76 76 77 77 77 77 77 78 78 78 78 77 76 75 73 73 73 73 73 73 73 72 72 71 70 69 69 68 68 68 68 69 69 69 68 67 66 66 66 66 66 67 67 68 69 70 70 71 73 74 75 77 79 77 73 68 63 59 56 55 56
60 60 59 57 55 53 53 54 55 55 57 59 61 63 65 67 68 69 70 72 73 74 75 75 76 76 77 77 77 78 78 78 79 79 79 78 77 75 73 73 73 73 73 73 73 72 71 71 70 69 68 67 67 67 67 67 68 68 67 66 66 65 65 65 65 65 65 66 67 67 67 69 70 71 73 72 67 60 55 52 50 48 48 49 51
59 57 54 52 51 52 53 54 55 57 59 61 63 65 67 68 69 70 71 72 73 75 75 76 76 77 77 77 77 78 78 79 80 80 80 79 77 75 74 73 72 73 73 73 72 72 71 71 70 69 68 67 66 66 66 67 67 67 67 66 65 64 64 64 64 64 64 64 64 64 64 65 67 67 64 57 49 44 43 43 42 42 45 47 49
54 51 50 50 51 52 53 55 57 59 61 63 65 66 68 69 70 71 72 73 74 75 76 77 77 77 78 78 78 79 80 80 81 81 81 80 78 76 74 73 73 72 72 72 71 71 70 70 69 68 67 66 66 66 65 66 66 65 65 65 64 63 62 63 63 62 61 61 61 60 60 62 61 56 48 41 39 39 40 41 39 40 44 47 48
49 48 48 49 51 53 55 57 59 61 63 65 66 67 69 70 71 72 73 74 75 76 77 78 78 78 79 79 80 81 81 82 82 83 82 81 79 76 74 73 73 72 71 71 70 70 69 68 67 67 66 66 65 65 65 65 64 64 64 63 63 63 62 61 60 59 59 58 57 56 56 56 51 43 37 35 36 37 39 41 40 38 42 46 46
47 48 49 51 53 55 57 59 61 62 64 65 67 68 69 70 71 72 74 75 76 77 78 79 80 80 81 81 82 83 84 84 84 84 83 82 79 76 73 72 71 71 70 69 68 68 67 67 66 65 65 64 64 64 64 63 63 63 63 63 62 62 61 60 58 57 57 55 54 54 52 48 41 36 36 36 36 36 36 40 41 38 40 43 44
48 50 52 53 55 56 58 60 62 63 65 66 67 68 69 71 72 73 75 76 78 79 80 81 81 82 83 84 85 85 86 86 86 85 84 81 77 74 72 70 69 69 68 67 66 66 65 65 64 64 63 63 62 62 62 62 62 61 62 62 62 61 59 57 55 55 53 51 51 51 47 42 38 37 38 37 38 38 37 39 41 42 41 42 43
50 51 53 54 56 58 60 61 63 65 66 67 68 69 70 72 73 75 77 78 80 81 82 83 83 84 85 86 87 87 87 87 86 85 82 79 75 72 70 69 68 67 66 66 65 65 64 64 63 62 62 61 61 61 60 60 61 61 61 61 61 59 56 53 53 52 49 48 49 47 44 41 39 38 38 37 37 39 40 39 40 42 43 43 44
51 52 54 56 58 60 62 63 65 66 67 68 69 70 72 74 75 77 78 80 82 83 84 85 86 86 87 88 89 89 88 87 86 83 80 76 73 71 69 68 67 66 66 65 65 64 64 64 63 62 62 61 60 60 60 60 61 61 61 61 58 55 52 51 50 48 46 47 47 44 42 41 39 38 39 38 37 38 40 41 41 42 44 44 44
52 54 56 58 60 61 63 65 66 68 69 70 71 72 74 76 77 79 80 82 84 85 86 87 88 89 89 90 90 89 88 86 84 80 76 73 70 69 68 67 66 65 64 64 64 63 63 63 63 62 61 61 60 59 59 60 60 60 59 58 55 50 49 48 47 44 44 45 44 41 40 39 38 38 38 39 40 40 42 43 44 44 44 44 42
53 55 57 59 60 62 64 66 68 69 70 72 73 75 76 78 79 80 82 84 85 86 87 88 89 90 91 91 90 89 87 84 80 77 73 70 68 67 66 65 64 63 62 61 61 61 60 60 61 60 60 59 58 57 58 58 58 57 56 54 51 47 45 45 43 42 42 42 40 38 36 35 36 36 37 37 40 42 44 44 43 42 41 40 38
54 55 57 59 61 64 66 67 69 70 72 74 75 77 78 79 80 82 84 85 86 87 89 90 90 91 91 91 90 88 85 81 77 73 70 67 66 65 64 63 63 62 60 60 59 58 58 58 57 57 57 56 55 54 55 55 54 53 51 50 47 43 41 41 41 40 40 39 37 35 33 33 35 36 37 37 38 39 41 41 39 37 37 36 36
55 57 59 61 63 65 67 68 70 71 73 75 77 78 79 80 81 83 85 86 88 89 91 91 92 92 92 91 90 86 82 78 75 72 69 66 65 64 63 62 61 61 60 59 58 57 56 56 55 54 53 52 52 51 51 51 50 49 47 46 44 40 37 38 39 38 37 36 35 33 33 34 35 36 36 36 37 37 37 37 36 35 35 35 36
57 59 60 62 64 66 68 69 71 73 75 76 78 78 79 80 82 84 86 88 89 91 92 93 93 93 93 91 88 84 80 76 74 72 69 66 64 63 62 61 60 59 59 58 57 56 55 54 53 52 51 49 48 48 48 46 45 45 43 42 40 36 34 36 37 35 35 35 34 33 32 33 33 35 35 34 34 34 35 35 35 34 34 35 36
58 60 61 63 65 67 69 71 73 75 77 78 78 79 80 81 83 86 87 89 91 92 94 94 94 94 92 89 86 81 78 76 74 72 69 67 64 63 62 61 60 58 57 56 55 54 53 52 52 50 48 46 45 45 44 42 41 41 40 39 37 33 33 35 35 33 34 35 33 32 31 31 31 32 32 31 31 32 33 34 34 34 34 35 36
59 60 62 64 66 69 71 73 75 77 79 80 80 80 81 83 85 87 88 90 92 93 94 94 94 93 90 86 83 80 77 75 73 70 67 65 63 61 60 60 59 57 56 55 54 52 50 49 49 47 46 44 42 42 41 39 39 38 37 36 33 31 32 34 33 32 34 35 33 32 31 30 29 29 29 29 29 30 32 33 34 35 35 35 35
60 61 63 66 68 71 74 76 78 80 81 81 80 81 83 85 87 88 90 91 93 93 94 94 93 91 87 83 81 78 76 73 70 67 64 62 60 58 57 57 56 55 54 53 52 50 47 46 46 44 43 41 39 38 37 36 36 36 34 32 30 30 32 32 31 31 33 34 34 33 32 30 28 28 27 27 27 29 31 33 34 35 34 34 34
61 64 66 68 70 73 75 77 79 81 81 81 81 82 85 86 88 90 91 92 93 94 94 93 91 87 84 81 79 77 74 71 68 64 62 59 57 55 54 53 52 51 51 50 49 47 45 43 43 41 39 38 36 35 35 34 34 33 32 30 29 30 31 31 30 30 32 34 34 33 32 31 29 27 26 26 27 29 31 33 34 34 34 34 34
64 66 68 70 73 75 77 78 80 80 80 80 81 83 85 87 89 91 92 93 94 94 93 91 87 83 81 79 77 75 72 69 66 63 59 57 54 52 51 50 48 47 46 45 44 43 41 40 40 38 36 35 33 32 33 33 31 31 30 28 29 30 31 30 29 29 31 33 34 33 31 30 29 28 26 26 27 30 32 33 34 34 34 35 34
66 68 70 72 74 76 78 79 80 80 80 80 82 84 86 88 90 91 92 93 93 93 91 87 84 81 79 77 75 73 71 68 64 61 57 53 51 49 48 46 44 43 43 42 41 39 38 37 37 35 34 32 31 31 32 31 30 29 28 28 28 30 30 28 28 29 30 33 33 32 30 29 28 28 27 26 27 30 31 32 33 34 34 34 34
67 69 71 73 75 77 78 79 79 79 80 81 83 85 87 89 90 91 92 93 92 91 87 84 82 79 77 75 73 70 67 64 60 56 53 50 47 45 44 44 42 41 40 40 38 36 34 34 33 32 30 29 29 30 30 29 29 28 27 27 27 28 28 27 27 28 30 32 32 31 29 27 27 27 27 27 27 29 31 32 33 34 34 34 34
68 71 72 74 75 76 77 77 78 79 81 83 84 86 87 89 90 91 92 92 90 87 84 82 80 77 75 73 70 67 62 58 55 52 50 48 45 42 42 42 41 40 39 38 36 34 32 31 30 29 28 28 28 28 28 27 27 27 26 26 25 25 26 26 27 28 30 30 31 30 29 27 26 27 28 28 28 30 31 32 33 33 34 33 33
70 71 73 74 75 75 75 76 78 80 82 84 85 87 88 89 90 91 91 90 87 83 81 80 78 75 73 71 67 61 55 52 50 49 47 45 42 40 40 41 40 39 38 36 34 32 29 28 27 26 26 27 27 26 26 26 26 26 26 26 25 24 24 25 27 28 29 29 30 30 30 28 27 27 28 28 28 30 32 33 33 33 34 33 32
70 71 72 73 74 74 74 75 78 80 82 84 86 87 88 89 90 90 90 88 84 81 79 77 75 73 71 68 62 56 50 47 47 46 46 45 41 38 39 39 39 38 37 35 32 29 27 25 24 24 24 25 25 25 25 25 25 25 26 27 26 26 25 25 27 28 29 29 29 29 29 28 27 27 28 28 28 30 32 33 33 33 33 32 31
70 71 72 72 72 72 73 75 78 80 83 84 86 88 88 89 89 89 87 84 81 79 77 74 72 71 69 64 58 51 46 44 43 44 44 43 41 38 37 38 37 35 35 34 31 27 25 23 22 23 23 23 24 24 25 25 25 25 26 27 27 27 27 27 27 28 29 29 29 28 27 27 27 27 27 28 29 30 31 32 32 32 31 31 30
69 70 70 70 70 71 74 76 78 80 82 84 86 87 88 88 88 87 85 81 79 77 74 72 70 69 66 60 54 48 44 42 41 41 42 42 39 34 33 35 34 31 31 30 28 25 23 21 21 21 22 22 23 24 24 24 24 25 25 26 27 28 29 29 29 29 29 29 29 28 27 27 27 27 27 29 30 30 30 30 31 31 30 30 29
67 68 68 69 70 72 75 77 79 81 83 84 85 86 86 87 87 85 82 79 76 73 71 70 69 67 63 56 50 45 43 41 39 38 39 42 40 33 28 29 31 29 27 26 24 22 20 20 20 20 21 21 22 23 24 24 24 25 25 26 27 28 29 30 30 30 30 29 29 28 28 28 28 28 28 30 31 31 31 31 31 31 31 30 29
65 66 67 69 71 73 75 77 79 81 83 84 85 85 85 85 84 82 79 77 74 70 69 68 67 64 60 53 47 43 41 40 38 36 34 36 40 38 30 27 27 27 25 23 21 19 18 18 19 19 20 21 22 23 24 24 24 25 25 26 28 28 29 30 30 31 31 30 29 29 29 29 30 29 30 31 33 33 33 32 31 31 31 30 29
64 65 67 70 72 74 76 78 80 81 83 84 83 83 83 83 81 79 77 75 71 68 67 66 65 62 58 51 45 42 40 38 37 36 32 30 32 36 35 30 27 25 23 22 20 18 17 17 18 18 19 21 21 22 23 23 23 24 25 26 27 28 29 30 30 31 31 31 30 30 30 30 30 30 31 32 33 33 33 32 31 31 31 30 30
Wind_Direction
290 289 288 287 286 285 285 285 284 283 282 282 283 283 282 283 283 283 283 283 283 283 283 284 284 284 284 284 284 284 284 284 283 282 281 281 282 282 282 283 283 283 283 283 282 282 281 280 279 278 277 277 276 276 276 276 275 275 274 274 273 272 272 272 271 270 268 267 266 266 265 265 265 264 264 263 263 262 262 262 262 262 262 261 261
289 287 286 285 285 285 286 285 284 284 284 285 285 284 284 285 285 284 284 284 284 284 284 285 285 285 285 286 286 286 285 284 284 283 283 283 283 283 283 283 283 283 283 283 283 283 282 281 281 280 280 279 279 278 278 277 277 276 276 275 274 274 273 272 272 270 269 268 267 266 265 265 265 264 264 263 263 262 262 262 262 262 262 262 261
286 285 285 285 286 286 286 285 285 286 286 286 286 286 286 285 285 285 285 285 285 285 286 286 286 287 287 287 287 287 286 285 284 284 284 284 283 283 283 283 283 283 283 283 283 283 282 282 282 281 281 281 280 280 279 279 278 277 276 276 275 274 274 273 272 272 271 270 268 267 266 265 265 265 265 264 263 263 262 262 262 262 262 262 261
286 285 285 286 287 287 287 287 287 288 288 288 287 287 286 286 286 286 286 286 286 287 287 287 287 287 287 287 287 287 286 286 285 285 284 284 284 284 283 283 283 283 284 284 284 284 283 283 283 282 282 282 281 280 280 279 279 278 277 277 276 275 274 274 273 273 272 271 270 269 268 267 266 265 265 265 264 264 263 263 262 262 262 262 261
287 287 287 289 289 290 289 289 289 289 289 289 288 288 288 288 288 288 288 288 287 287 287 286 286 285 285 285 285 285 286 286 286 286 285 285 285 285 285 285 285 285 285 285 285 284 284 284 283 283 282 282 281 281 280 279 279 278 278 277 277 276 275 274 274 273 273 272 271 270 269 268 267 266 265 265 265 265 264 264 263 262 262 262 261
289 290 291 292 292 291 291 291 291 291 290 290 290 290 290 290 289 289 288 288 288 288 287 287 286 286 286 285 285 285 286 286 287 288 287 287 287 287 287 287 287 287 286 286 286 285 285 284 284 283 283 282 282 281 280 280 279 279 278 277 277 276 275 275 274 274 273 273 272 271 270 269 268 267 266 265 264 264 264 264 263 263 262 262 261
293 294 294 293 292 291 291 292 292 291 290 290 290 291 291 291 291 290 290 291 291 290 290 290 289 289 289 289 289 288 288 288 289 289 289 289 289 289 289 289 288 288 287 287 286 286 285 284 284 283 283 282 282 281 281 280 279 279 279 278 277 277 276 276 275 274 274 273 273 272 271 270 269 268 267 266 265 264 264 264 263 262 262 262 261
295 294 292 291 291 291 291 291 291 290 291 291 292 293 293 293 293 293 293 293 294 294 293 293 293 292 292 292 291 291 290 290 290 290 290 290 290 290 290 289 289 288 288 287 287 286 286 285 284 284 283 283 282 282 281 280 280 279 279 278 278 278 277 276 276 275 274 274 273 272 272 271 270 269 268 267 266 264 263 263 263 262 261 260 260
295 293 291 290 291 291 291 291 291 292 293 294 295 296 296 296 296 296 296 296 296 296 296 295 295 294 294 293 293 292 292 291 291 290 290 290 289 289 289 289 289 289 289 288 287 287 286 286 285 284 283 282 282 281 281 280 280 279 279 278 278 277 277 276 275 275 274 274 273 273 272 271 270 270 269 268 267 265 262 262 262 262 261 260 259
295 293 292 292 292 292 293 293 294 295 296 297 298 299 299 299 299 298 298 298 298 298 297 297 296 295 295 294 294 293 292 292 291 291 290 289 289 289 289 289 289 289 289 289 288 287 287 286 285 284 283 282 281 280 280 279 279 278 278 278 277 277 276 276 275 275 274 274 274 273 273 273 272 271 270 269 268 266 264 262 261 261 261 260 259
295 295 295 295 295 295 296 297 298 298 299 299 299 299 299 298 298 298 297 297 298 297 297 296 295 295 295 294 294 293 293 292 292 291 291 290 290 289 289 289 288 288 288 287 287 286 286 285 284 284 283 282 281 280 280 279 278 278 278 277 277 277 276 276 276 275 275 275 275 275 274 274 273 273 272 271 270 268 266 264 261 261 260 260 259
297 298 298 298 297 297 298 300 300 300 299 298 296 294 293 294 294 295 295 295 296 296 295 295 295 296 296 295 295 294 294 293 293 292 291 291 290 289 289 288 287 287 286 285 285 284 283 283 283 282 282 282 281 281 280 279 279 278 278 277 277 277 277 276 276 276 276 276 276 276 276 275 275 274 273 272 271 270 268 266 264 262 261 260 259
300 299 298 298 299 300 300 299 297 296 294 291 289 289 290 291 292 294 294 295 296 296 297 297 298 298 297 297 296 295 294 294 293 292 292 291 290 289 288 287 286 285 284 283 283 282 282 281 281 281 281 280 280 280 280 279 279 278 277 277 277 277 277 277 276 276 276 276 277 276 276 275 274 274 273 272 271 270 269 268 266 264 263 261 259
300 300 299 299 299 297 294 293 291 289 287 286 287 288 290 291 293 295 296 297 298 298 298 298 298 298 297 297 296 295 294 294 293 292 291 290 290 289 288 287 286 284 284 283 282 281 281 281 281 280 280 280 280 279 279 279 278 278 278 277 277 276 276 276 276 276 276 276 276 276 275 274 273 272 272 271 271 271 270 270 268 266 265 262 260
300 299 298 295 292 289 287 286 286 285 286 287 288 291 293 296 297 298 298 299 299 298 298 298 298 298 297 297 296 296 295 295 294 293 292 291 290 289 288 287 286 285 284 283 282 282 281 281 280 280 280 279 279 279 278 278 278 277 277 277 276 276 275 275 275 275 275 275 275 274 273 272 272 272 272 272 272 272 271 270 269 267 266 263 260
298 295 291 287 284 283 283 284 285 287 288 291 294 297 299 300 300 300 299 299 299 300 300 300 300 300 299 299 298 298 297 296 295 294 293 292 291 290 288 287 286 285 284 284 283 282 281 280 280 279 279 278 278 277 277 276 276 276 276 276 276 275 275 274 274 274 275 274 273 273 273 273 273 273 273 273 273 273 272 270 269 267 266 263 260
290 286 283 281 281 283 285 287 289 292 295 298 300 301 301 301 300 300 300 301 301 302 302 303 303 303 302 302 301 300 299 298 297 296 294 293 292 290 289 288 287 286 285 284 282 281 281 280 279 278 278 277 277 276 276 275 275 275 275 275 275 275 275 275 275 275 274 273 273 273 274 275 275 275 275 275 274 273 272 271 269 268 265 263 260
281 280 280 282 285 287 290 293 295 298 301 302 301 301 301 301 302 302 303 303 304 305 305 306 306 306 305 305 304 303 302 300 299 298 297 295 293 292 290 289 288 286 285 284 283 281 281 280 279 279 278 277 277 276 276 275 275 274 274 274 274 275 275 276 276 275 275 274 274 275 277 277 277 277 276 275 275 274 274 272 271 268 265 262 258
282 283 285 287 290 292 295 298 300 301 301 300 300 301 302 302 303 305 306 306 307 308 308 309 309 309 309 308 307 306 305 304 303 302 300 298 296 293 292 290 288 287 285 284 283 282 281 280 280 279 279 278 278 277 277 276 276 275 275 275 275 275 275 275 275 276 276 276 277 278 279 279 278 277 277 277 277 276 275 274 272 269 266 261 256
287 288 290 293 295 298 299 300 300 300 299 299 300 302 302 304 305 306 307 308 309 310 310 311 311 311 311 310 309 307 306 305 305 304 303 301 299 295 293 291 288 286 284 283 282 281 281 280 280 279 279 279 278 278 278 277 277 276 276 276 275 275 275 275 275 276 277 278 279 279 279 279 279 279 279 279 278 278 276 275 272 269 265 259 253
291 293 296 298 300 300 300 299 299 299 299 300 301 303 304 305 306 307 308 309 310 311 311 311 312 312 311 310 309 307 306 306 305 305 305 304 301 297 294 291 288 286 284 283 282 281 281 280 280 279 279 279 279 278 278 277 277 277 277 276 276 276 276 277 276 277 278 279 280 280 279 280 280 280 280 280 279 278 276 274 271 268 262 255 247
297 299 300 301 300 299 298 298 298 299 300 302 304 305 306 307 308 309 310 311 311 312 311 312 312 311 311 310 308 307 307 306 306 306 306 305 303 299 296 293 290 287 285 284 283 282 281 281 280 280 279 279 278 278 278 278 278 277 277 277 278 278 278 278 277 278 279 280 280 280 280 280 280 280 280 280 279 277 275 272 268 263 255 246 239
301 301 300 299 298 298 297 298 299 300 302 304 306 307 308 309 310 311 312 312 312 312 312 312 312 311 310 309 309 308 307 307 307 307 306 305 303 300 296 293 291 288 286 285 284 283 282 282 281 280 280 279 279 278 278 278 279 279 279 279 279 279 279 278 279 280 280 280 280 281 281 281 280 280 281 280 278 275 271 265 259 253 244 236 233
299 298 297 297 297 297 297 299 300 302 304 306 307 308 310 311 312 312 313 313 313 313 312 312 312 311 310 309 309 308 308 307 307 307 306 305 302 299 295 291 289 288 286 285 284 284 283 282 281 280 280 279 279 279 279 280 280 281 280 280 280 280 281 280 281 281 281 280 281 281 281 280 280 281 282 280 275 269 262 254 248 243 236 230 230
297 296 296 296 296 297 299 301 302 304 306 308 309 310 311 312 312 313 313 313 313 313 313 312 311 311 310 309 309 308 308 307 307 306 305 304 301 298 294 290 287 286 285 283 283 283 282 282 281 280 279 279 278 279 279 280 281 281 281 281 281 282 282 282 282 282 281 280 280 281 280 280 280 282 281 275 266 259 252 244 240 237 232 229 228
296 296 296 297 298 300 302 304 305 307 308 310 311 311 312 312 313 313 313 313 313 313 313 312 311 311 310 310 309 309 309 308 307 306 305 303 301 297 293 289 286 284 283 282 281 281 281 281 280 280 279 278 278 278 278 279 280 281 281 282 282 283 283 283 282 281 280 280 280 280 279 279 280 280 275 265 256 254 246 238 237 235 230 228 225
296 297 298 300 301 303 305 306 308 309 310 311 312 312 312 312 313 313 313 314 314 314 313 313 312 311 311 311 311 310 310 309 308 307 305 303 300 297 293 289 286 284 283 282 281 281 280 280 280 280 279 279 278 278 278 279 280 281 282 282 283 283 283 283 281 279 279 279 279 278 277 277 277 271 264 257 254 253 243 234 235 234 227 225 224
299 300 301 302 303 305 307 308 309 311 312 312 312 312 312 313 313 313 314 314 315 314 314 313 313 312 312 312 312 311 310 309 308 307 305 303 300 297 293 289 287 285 284 283 282 281 281 280 280 279 279 278 278 278 278 279 279 281 282 282 283 283 283 282 279 277 278 277 277 277 274 273 269 261 257 254 251 249 241 233 234 234 228 224 223
301 302 303 304 306 308 309 310 311 312 313 313 313 312 312 312 313 314 314 315 315 315 315 314 314 313 313 313 313 312 311 310 309 307 306 303 300 297 293 290 288 287 285 285 284 283 282 281 280 280 279 278 278 278 278 279 280 281 281 282 283 283 282 280 276 275 276 275 275 275 270 265 261 255 256 254 248 244 238 233 233 233 229 226 224
302 304 305 307 308 309 310 311 312 313 313 313 313 312 312 313 313 314 315 316 316 316 316 315 314 314 314 314 314 313 312 311 309 308 305 303 300 297 294 291 290 288 287 286 285 283 283 282 281 280 279 279 279 278 279 280 280 281 281 282 282 282 280 276 273 274 274 272 274 271 263 258 256 254 254 251 245 241 237 233 230 228 228 228 227
305 306 308 309 310 311 312 312 313 313 313 313 313 313 313 314 314 315 316 316 317 317 316 316 315 315 315 315 314 314 312 311 309 307 305 303 300 297 294 292 291 290 288 287 285 284 283 282 281 280 280 279 279 279 280 280 280 281 281 281 281 280 276 272 271 272 271 271 272 267 258 254 251 249 250 247 240 237 234 232 229 227 228 230 230
307 308 309 310 310 311 312 312 313 314 314 314 314 314 314 315 315 316 316 317 317 317 317 317 316 316 316 315 315 314 313 311 309 307 305 302 300 297 295 293 292 291 289 288 287 285 284 282 281 280 279 279 279 279 279 279 279 280 280 280 279 276 272 270 270 269 268 269 269 262 254 251 247 246 248 244 238 235 233 232 231 230 231 232 231
308 308 309 310 311 311 312 313 314 315 315 315 315 315 315 315 316 316 317 317 318 317 317 317 317 317 316 316 315 314 312 310 308 306 304 302 299 297 296 294 293 291 290 288 287 286 284 283 281 280 279 278 278 278 278 278 278 278 278 277 276 272 268 267 267 265 266 267 265 257 249 247 247 247 249 246 240 237 236 235 234 232 230 228 225
308 309 309 310 311 312 313 314 315 316 316 316 316 316 316 316 316 317 317 318 318 318 317 317 317 317 316 316 315 314 312 310 308 306 304 302 299 297 296 294 293 292 290 289 287 286 285 284 282 281 280 278 277 277 276 276 276 276 275 274 272 268 264 264 263 262 264 263 258 250 244 243 246 249 250 249 244 239 238 236 233 228 224 220 217
308 309 310 311 312 313 314 315 316 316 317 317 317 316 316 316 317 317 318 319 319 318 318 318 318 317 317 316 315 313 311 309 307 306 304 302 299 297 296 294 293 292 291 289 287 286 284 283 282 281 280 279 278 276 275 274 274 273 273 270 267 264 261 260 259 259 260 257 250 244 241 243 246 249 250 248 242 237 236 233 229 224 218 215 214
309 310 311 312 313 314 315 315 316 317 317 317 317 317 317 317 317 318 319 319 319 319 319 318 318 318 317 316 315 313 311 309 307 305 304 301 299 297 295 294 293 292 291 289 287 286 284 283 282 281 280 279 277 276 274 273 273 271 269 266 263 261 258 255 255 256 255 251 245 240 240 243 245 247 248 244 237 232 231 230 226 221 217 214 214
310 311 312 313 314 315 315 316 317 318 318 318 317 317 317 318 318 319 320 320 320 319 319 319 318 318 317 316 314 313 311 309 308 306 304 302 300 297 295 294 292 291 289 288 287 286 285 283 281 280 280 278 276 275 274 272 270 268 265 262 259 257 253 251 251 251 250 246 241 237 237 241 244 244 242 238 232 228 228 227 224 220 217 215 215
310 312 313 315 315 316 317 317 318 319 319 319 319 318 318 319 319 320 320 320 320 320 319 319 318 318 317 316 314 313 312 310 309 307 305 303 301 299 297 295 294 292 289 287 286 285 284 283 281 280 278 277 275 274 273 270 267 264 261 259 256 252 249 248 247 247 246 244 239 235 234 236 240 241 238 234 229 227 226 225 222 219 217 216 216
312 313 314 315 316 317 318 319 319 320 320 319 319 319 319 320 320 321 321 320 320 320 319 319 319 318 317 316 315 314 313 312 310 309 308 305 303 301 299 298 296 294 292 289 285 284 284 283 282 279 277 276 274 272 270 266 263 260 258 256 252 248 246 245 243 243 244 242 240 237 233 232 236 239 237 234 230 227 225 224 221 219 218 217 217
313 314 315 316 317 318 318 319 319 320 320 319 319 320 320 321 321 321 321 321 321 320 320 320 319 319 318 317 316 315 314 312 311 310 309 307 305 303 302 301 299 297 295 292 288 284 283 283 282 279 276 275 273 269 266 262 258 256 255 252 248 246 244 241 239 240 241 240 239 239 235 231 231 236 237 234 230 226 224 222 219 218 218 217 216
314 315 316 317 318 319 319 319 319 320 319 319 320 320 321 321 321 321 321 321 321 321 321 321 320 319 318 318 317 315 314 312 311 310 309 307 305 305 304 302 301 300 298 295 291 286 282 281 281 279 275 273 270 265 261 257 253 251 250 247 244 243 241 238 236 237 238 237 236 237 235 230 228 232 235 233 228 224 222 220 217 216 217 216 214
315 316 317 318 318 319 319 319 319 319 319 320 320 321 321 321 322 322 322 322 322 322 322 321 321 320 319 319 317 316 314 312 310 308 307 306 305 305 305 303 302 302 301 299 295 289 283 280 280 278 274 271 266 261 256 252 248 247 245 242 242 241 239 235 234 234 235 234 233 234 234 230 227 230 232 230 226 221 218 217 216 215 215 215 214
315 316 317 318 318 319 319 319 319 319 320 320 321 322 322 322 322 322 322 322 322 322 322 322 321 321 320 319 318 317 314 312 309 307 306 305 305 305 305 303 303 303 302 301 299 292 285 281 279 276 272 266 260 256 252 248 246 244 241 240 240 239 236 232 231 230 231 232 233 234 234 229 225 227 229 227 222 217 216 216 215 214 215 215 215
315 316 317 317 318 319 319 319 319 320 321 321 322 322 322 322 323 323 323 323 323 323 323 323 323 322 321 320 319 318 315 312 309 307 305 305 304 305 305 303 303 304 304 303 301 295 287 282 278 273 267 260 255 252 248 245 244 242 238 237 238 237 232 229 229 229 229 229 232 235 234 229 224 224 226 223 218 215 215 215 215 215 215 216 216
315 316 317 318 319 319 319 320 320 321 321 322 322 323 323 323 323 323 324 324 324 324 324 324 324 323 322 322 321 319 317 313 310 309 307 305 304 305 304 303 303 304 304 303 301 296 289 282 275 268 262 256 252 249 244 242 242 240 235 234 235 234 230 227 227 229 228 227 229 233 233 230 225 224 223 221 217 215 216 216 216 216 217 217 217
316 316 317 318 319 320 320 321 321 322 322 323 323 323 323 324 324 324 325 326 326 326 325 325 324 324 324 324 323 321 318 315 313 312 310 308 307 306 306 304 304 305 304 303 301 297 290 282 272 263 257 253 249 244 240 238 240 238 233 231 232 231 228 226 227 228 228 226 228 231 231 228 226 224 223 221 218 217 217 217 218 218 218 218 218
316 317 318 319 320 320 321 321 322 323 323 323 324 324 324 325 325 326 327 327 327 326 326 326 326 326 326 326 325 323 320 317 316 315 313 311 309 309 308 305 303 304 304 302 301 297 290 280 269 260 254 249 245 240 237 236 237 236 232 231 231 230 227 226 227 229 228 227 228 230 230 228 226 225 224 221 219 218 218 219 220 220 220 221 222
317 318 319 320 321 322 322 322 323 323 324 324 325 325 325 326 327 327 328 328 328 327 327 327 328 328 328 327 326 324 322 320 319 318 316 313 310 310 310 307 304 303 302 301 299 295 288 278 267 258 251 246 241 237 235 235 235 233 231 230 231 230 228 227 228 229 230 228 228 230 230 228 225 224 222 221 219 218 218 220 221 222 222 224 225
319 320 320 321 322 323 323 323 324 324 325 326 326 326 327 327 328 328 328 328 328 328 329 329 330 330 329 329 327 325 323 322 322 322 321 318 314 312 312 310 307 305 302 300 297 292 285 275 264 255 248 243 238 234 233 234 234 231 228 228 230 230 229 228 228 228 228 228 228 229 229 227 224 222 220 219 218 217 218 219 220 221 222 223 224
321 321 322 323 324 324 324 325 325 326 327 327 327 328 328 329 329 329 329 329 329 330 330 331 331 331 331 330 328 326 324 323 323 323 324 323 320 318 316 315 313 310 307 302 297 291 282 270 259 251 245 239 235 233 233 233 232 230 227 227 228 230 230 230 229 228 226 226 226 227 227 225 223 222 220 218 217 217 217 218 219 221 222 222 221
322 323 324 324 325 325 325 326 327 327 328 328 328 329 330 330 330 330 330 330 330 331 332 333 333 333 332 331 330 328 326 326 325 325 325 325 323 321 319 317 316 315 312 307 300 292 281 267 256 247 242 237 232 231 233 234 233 230 227 227 228 231 232 232 231 228 226 225 224 225 225 223 221 221 221 220 219 218 218 219 219 221 222 222 220
Height
5688 5685 5683 5680 5677 5674 5671 5669 5667 5665 5663 5660 5658 5655 5652 5650 5648 5646 5643 5641 5638 5635 5633 5631 5629 5627 5626 5624 5622 5621 5619 5616 5614 5612 5610 5609 5607 5605 5604 5601 5600 5598 5596 5594 5593 5592 5591 5589 5587 5586 5584 5583 5582 5581 5580 5579 5577 5576 5576 5576 5575 5575 5575 5573 5571 5571 5573 5574 5573 5574 5575 5574 5573 5573 5574 5573 5573 5574 5574 5575 5576 5576 5576 5577 5578
5682 5679 5676 5673 5670 5668 5665 5663 5661 5658 5656 5654 5651 5648 5646 5644 5642 5639 5636 5633 5630 5628 5626 5624 5622 5620 5618 5616 5615 5613 5611 5608 5606 5604 5602 5600 5598 5596 5594 5592 5590 5589 5587 5585 5583 5582 5580 5579 5577 5575 5573 5572 5571 5570 5569 5567 5565 5564 5563 5563 5562 5562 5563 5561 5557 5557 5559 5560 5559 5561 5563 5562 5561 5561 5560 5560 5560 5561 5562 5563 5564 5564 5564 5564 5565
5676 5673 5670 5667 5665 5662 5660 5657 5654 5652 5650 5647 5644 5642 5640 5637 5635 5632 5629 5626 5624 5622 5619 5617 5615 5613 5610 5608 5606 5604 5603 5600 5598 5596 5593 5591 5589 5587 5585 5583 5581 5579 5577 5575 5574 5572 5570 5568 5566 5564 5563 5561 5559 5558 5557 5555 5553 5552 5550 5550 5550 5550 5550 5548 5545 5544 5545 5545 5544 5547 5549 5549 5550 5549 5545 5546 5548 5548 5549 5550 5551 5552 5552 5552 5552
5670 5667 5664 5662 5659 5656 5654 5651 5648 5646 5643 5640 5638 5636 5633 5631 5628 5625 5622 5620 5617 5615 5613 5610 5608 5606 5604 5601 5598 5596 5593 5591 5589 5586 5584 5582 5580 5577 5575 5573 5571 5569 5567 5565 5563 5561 5559 5557 5555 5554 5552 5549 5548 5547 5545 5543 5541 5539 5537 5537 5537 5537 5537 5536 5533 5532 5531 5530 5530 5533 5533 5534 5538 5536 5532 5534 5534 5534 5536 5537 5537 5539 5539 5539 5540
5664 5661 5659 5656 5653 5650 5647 5644 5642 5639 5636 5633 5631 5628 5626 5624 5621 5618 5615 5613 5611 5609 5606 5604 5601 5599 5596 5594 5591 5588 5585 5581 5578 5576 5574 5571 5569 5566 5564 5562 5560 5559 5557 5554 5552 5550 5548 5546 5544 5543 5540 5538 5536 5534 5533 5531 5529 5527 5525 5524 5523 5523 5523 5523 5522 5519 5517 5516 5516 5518 5518 5518 5521 5521 5520 5523 5522 5521 5522 5523 5523 5525 5526 5526 5526
5658 5655 5652 5649 5646 5643 5640 5637 5635 5632 5629 5626 5623 5621 5619 5617 5614 5611 5608 5606 5603 5601 5598 5595 5592 5590 5587 5585 5582 5579 5577 5573 5569 5565 5563 5561 5558 5556 5553 5550 5548 5546 5545 5543 5541 5538 5537 5535 5533 5531 5529 5526 5524 5522 5521 5518 5516 5514 5512 5512 5511 5509 5509 5510 5510 5506 5504 5504 5503 5503 5503 5503 5505 5505 5505 5508 5510 5510 5509 5510 5511 5511 5511 5513 5513
5652 5649 5646 5643 5639 5636 5633 5631 5628 5624 5621 5618 5615 5613 5611 5608 5606 5603 5600 5598 5595 5592 5589 5585 5582 5580 5577 5574 5572 5569 5566 5565 5561 5556 5553 5550 5547 5545 5542 5539 5536 5534 5533 5530 5528 5526 5524 5523 5521 5519 5517 5515 5512 5510 5509 5506 5504 5502 5500 5499 5498 5496 5495 5496 5497 5493 5491 5492 5489 5488 5489 5489 5490 5490 5490 5491 5494 5498 5498 5496 5497 5498 5497 5498 5499
5647 5643 5640 5636 5633 5630 5627 5624 5620 5617 5614 5611 5608 5606 5603 5600 5597 5594 5591 5588 5585 5582 5579 5576 5572 5569 5566 5564 5562 5559 5556 5554 5552 5548 5544 5540 5537 5534 5531 5528 5525 5523 5521 5519 5516 5514 5511 5510 5508 5507 5505 5502 5499 5498 5496 5493 5491 5490 5487 5486 5484 5483 5481 5481 5482 5480 5478 5478 5475 5473 5475 5475 5474 5475 5476 5475 5476 5482 5487 5484 5481 5482 5483 5484 5485
5640 5637 5633 5630 5627 5624 5620 5617 5613 5609 5606 5603 5600 5598 5595 5591 5588 5585 5582 5579 5576 5573 5570 5567 5563 5560 5557 5553 5551 5549 5546 5544 5542 5539 5535 5531 5528 5525 5521 5518 5515 5511 5508 5506 5503 5501 5498 5496 5495 5493 5492 5490 5488 5485 5483 5481 5479 5477 5475 5473 5472 5470 5468 5467 5468 5467 5464 5464 5462 5460 5460 5460 5460 5459 5460 5460 5458 5462 5470 5473 5469 5465 5466 5470 5471
5633 5629 5626 5623 5620 5616 5613 5609 5605 5602 5599 5596 5592 5589 5586 5582 5579 5575 5572 5570 5567 5564 5560 5557 5553 5550 5547 5544 5541 5538 5535 5532 5531 5528 5525 5521 5519 5516 5512 5509 5505 5501 5497 5493 5491 5487 5485 5483 5481 5480 5478 5476 5475 5473 5471 5468 5466 5464 5462 5460 5459 5457 5455 5453 5454 5454 5451 5450 5449 5446 5445 5445 5444 5444 5445 5444 5442 5443 5450 5458 5457 5451 5450 5454 5455
5625 5622 5619 5615 5612 5608 5605 5601 5598 5595 5591 5588 5585 5581 5577 5574 5570 5567 5564 5561 5558 5555 5552 5548 5544 5541 5538 5534 5531 5528 5524 5521 5519 5517 5514 5510 5507 5505 5502 5498 5495 5491 5487 5483 5480 5476 5473 5471 5469 5466 5464 5462 5461 5459 5457 5455 5453 5451 5449 5447 5446 5443 5442 5440 5439 5439 5437 5436 5435 5432 5431 5431 5429 5429 5430 5426 5425 5427 5430 5436 5441 5438 5435 5439 5440
5618 5615 5611 5607 5603 5600 5597 5594 5591 5588 5585 5582 5578 5574 5571 5567 5564 5561 5557 5554 5551 5547 5543 5539 5535 5531 5528 5524 5521 5517 5514 5510 5507 5505 5502 5498 5495 5493 5490 5487 5484 5481 5477 5473 5470 5465 5462 5460 5457 5455 5452 5449 5447 5444 5442 5441 5439 5438 5436 5434 5432 5430 5427 5425 5425 5425 5423 5421 5421 5418 5416 5416 5415 5414 5413 5409 5408 5410 5410 5414 5422 5420 5417 5424 5426
5610 5607 5603 5599 5596 5593 5591 5588 5585 5582 5579 5575 5572 5568 5565 5561 5557 5554 5550 5546 5542 5538 5534 5530 5526 5521 5516 5512 5508 5505 5502 5498 5494 5491 5488 5485 5481 5479 5477 5474 5471 5469 5465 5462 5459 5454 5450 5448 5445 5443 5440 5437 5434 5431 5428 5426 5424 5423 5422 5421 5419 5417 5414 5411 5411 5411 5408 5407 5406 5404 5401 5401 5400 5399 5396 5393 5393 5393 5392 5395 5402 5400 5398 5407 5410
5602 5599 5595 5592 5589 5587 5585 5582 5579 5576 5572 5568 5564 5561 5558 5554 5550 5546 5542 5537 5532 5528 5524 5520 5516 5511 5506 5501 5496 5492 5489 5486 5482 5478 5475 5471 5467 5464 5462 5459 5456 5454 5451 5448 5446 5441 5437 5435 5432 5429 5427 5423 5420 5418 5415 5412 5410 5408 5408 5407 5406 5404 5400 5398 5398 5396 5395 5393 5391 5388 5387 5386 5385 5384 5380 5379 5378 5377 5376 5378 5381 5380 5381 5389 5393
5595 5592 5589 5586 5584 5581 5579 5576 5572 5568 5564 5560 5557 5553 5550 5546 5542 5537 5533 5528 5524 5519 5515 5511 5506 5501 5496 5491 5486 5481 5477 5473 5469 5465 5460 5457 5454 5450 5447 5443 5440 5437 5436 5433 5430 5427 5424 5421 5418 5416 5414 5410 5407 5405 5402 5399 5397 5395 5394 5393 5392 5390 5387 5385 5385 5383 5382 5380 5376 5374 5373 5372 5372 5369 5366 5365 5363 5361 5361 5362 5362 5361 5364 5369 5374
5589 5586 5584 5581 5578 5575 5572 5568 5564 5560 5556 5552 5549 5545 5541 5537 5533 5528 5523 5519 5514 5509 5505 5500 5496 5491 5485 5480 5475 5470 5465 5461 5457 5453 5447 5443 5439 5436 5433 5429 5425 5423 5421 5419 5415 5412 5409 5406 5404 5402 5400 5397 5394 5392 5389 5387 5384 5382 5381 5380 5378 5376 5373 5372 5372 5370 5368 5366 5363 5360 5359 5358 5358 5354 5351 5350 5349 5346 5345 5345 5344 5344 5346 5350 5356
5584 5581 5578 5575 5571 5567 5564 5560 5556 5552 5548 5544 5540 5536 5531 5527 5523 5519 5514 5509 5505 5500 5495 5490 5486 5481 5475 5470 5464 5459 5454 5450 5445 5441 5437 5431 5426 5422 5419 5416 5412 5409 5407 5404 5401 5399 5395 5393 5390 5389 5386 5383 5381 5379 5376 5374 5371 5370 5369 5367 5366 5362 5359 5359 5358 5355 5355 5352 5349 5347 5345 5344 5343 5339 5337 5335 5333 5331 5329 5327 5327 5328 5328 5331 5337
5579 5575 5571 5568 5564 5560 5557 5553 5548 5544 5540 5536 5531 5527 5522 5518 5513 5509 5505 5501 5496 5491 5486 5481 5476 5472 5466 5461 5455 5449 5443 5438 5433 5429 5424 5419 5414 5409 5405 5402 5399 5395 5392 5390 5387 5385 5382 5379 5377 5375 5373 5370 5368 5365 5363 5361 5358 5357 5357 5355 5354 5350 5347 5346 5344 5341 5341 5339 5336 5334 5331 5329 5328 5324 5322 5320 5318 5315 5313 5311 5310 5311 5311 5313 5320
5572 5568 5564 5561 5558 5554 5550 5546 5541 5537 5532 5528 5524 5520 5515 5510 5505 5500 5496 5491 5486 5482 5477 5471 5465 5461 5455 5449 5444 5438 5432 5427 5421 5416 5411 5406 5402 5397 5392 5389 5386 5382 5379 5376 5373 5371 5369 5366 5363 5361 5360 5357 5355 5353 5350 5347 5345 5344 5344 5342 5341 5338 5335 5335 5332 5328 5327 5325 5323 5321 5318 5315 5313 5310 5307 5306 5303 5300 5298 5295 5294 5294 5294 5297 5302
5565 5562 5558 5555 5551 5547 5543 5538 5534 5530 5525 5521 5517 5513 5508 5503 5498 5493 5488 5483 5477 5472 5466 5461 5455 5450 5444 5438 5432 5427 5421 5416 5410 5405 5400 5395 5389 5384 5381 5377 5374 5370 5366 5363 5361 5358 5356 5354 5351 5349 5347 5345 5343 5340 5337 5335 5333 5332 5331 5330 5329 5325 5322 5322 5320 5317 5315 5312 5310 5308 5305 5301 5298 5295 5293 5291 5288 5284 5282 5279 5278 5277 5277 5281 5285
5559 5555 5552 5548 5544 5539 5535 5531 5527 5522 5518 5514 5510 5505 5500 5495 5490 5485 5480 5475 5469 5462 5456 5451 5446 5440 5435 5429 5423 5417 5412 5406 5400 5394 5389 5384 5378 5373 5369 5366 5363 5359 5355 5352 5349 5347 5344 5341 5340 5338 5335 5333 5331 5328 5326 5323 5321 5320 5319 5317 5316 5313 5310 5310 5308 5305 5303 5300 5297 5295 5292 5289 5284 5281 5279 5276 5273 5270 5266 5263 5262 5262 5263 5266 5271
5552 5548 5544 5540 5536 5532 5527 5523 5519 5515 5510 5506 5501 5496 5490 5485 5480 5475 5470 5464 5458 5453 5446 5441 5435 5430 5424 5419 5413 5407 5401 5395 5389 5384 5378 5373 5367 5362 5357 5354 5351 5347 5343 5339 5337 5335 5332 5329 5328 5326 5324 5321 5319 5317 5314 5311 5309 5308 5307 5305 5303 5301 5299 5298 5295 5294 5291 5287 5285 5283 5280 5277 5271 5268 5266 5262 5258 5254 5250 5248 5247 5248 5250 5255 5260
5544 5540 5536 5532 5528 5524 5520 5515 5511 5507 5502 5497 5492 5486 5481 5476 5470 5465 5459 5454 5448 5442 5436 5430 5425 5418 5413 5407 5401 5396 5390 5384 5378 5372 5367 5361 5356 5351 5346 5342 5339 5335 5332 5328 5324 5322 5320 5317 5315 5314 5312 5309 5307 5305 5303 5300 5298 5296 5295 5294 5291 5289 5287 5286 5283 5282 5279 5276 5273 5271 5268 5264 5259 5255 5253 5248 5244 5240 5236 5235 5236 5238 5242 5247 5253
5537 5533 5529 5525 5520 5516 5512 5508 5504 5499 5494 5489 5484 5478 5472 5467 5461 5456 5450 5444 5438 5432 5426 5420 5414 5408 5402 5396 5391 5385 5379 5373 5367 5361 5356 5350 5345 5340 5335 5331 5327 5323 5320 5317 5313 5310 5308 5305 5303 5302 5300 5298 5295 5293 5291 5289 5286 5284 5283 5282 5280 5277 5275 5273 5272 5270 5268 5264 5262 5260 5257 5252 5247 5244 5240 5235 5231 5228 5227 5227 5229 5232 5236 5242 5248
5530 5526 5522 5518 5513 5509 5504 5500 5496 5491 5486 5481 5475 5469 5464 5458 5452 5447 5441 5435 5429 5422 5416 5410 5405 5399 5393 5387 5381 5375 5369 5363 5357 5351 5345 5339 5333 5328 5323 5319 5315 5312 5308 5305 5302 5298 5295 5293 5291 5290 5288 5286 5284 5282 5280 5278 5275 5273 5271 5270 5268 5266 5264 5262 5260 5258 5256 5253 5251 5249 5245 5241 5237 5233 5229 5225 5222 5222 5222 5223 5226 5229 5232 5238 5242
5523 5518 5514 5510 5506 5501 5497 5492 5487 5482 5478 5472 5466 5460 5454 5449 5443 5437 5432 5426 5420 5413 5407 5401 5395 5389 5383 5377 5371 5364 5358 5352 5345 5339 5333 5327 5321 5316 5311 5306 5302 5299 5296 5292 5290 5287 5283 5281 5279 5277 5276 5274 5273 5271 5269 5267 5265 5262 5260 5259 5257 5255 5253 5251 5249 5247 5245 5243 5241 5239 5235 5231 5228 5225 5222 5219 5218 5218 5218 5220 5223 5226 5229 5233 5237
5515 5511 5507 5503 5498 5494 5489 5484 5479 5474 5469 5463 5458 5452 5446 5440 5434 5428 5422 5416 5410 5403 5397 5390 5384 5378 5372 5366 5359 5353 5346 5340 5333 5327 5321 5315 5309 5303 5298 5293 5289 5285 5283 5280 5277 5274 5271 5268 5267 5265 5263 5262 5261 5259 5257 5256 5254 5251 5249 5248 5246 5244 5242 5240 5238 5236 5235 5233 5231 5229 5226 5223 5220 5218 5217 5215 5214 5214 5215 5216 5219 5222 5225 5228 5233
5507 5503 5499 5495 5490 5486 5481 5476 5471 5466 5461 5455 5449 5443 5437 5431 5425 5419 5413 5407 5400 5394 5387 5380 5373 5367 5360 5354 5347 5341 5334 5327 5320 5314 5307 5301 5295 5289 5284 5280 5276 5272 5269 5267 5264 5261 5259 5256 5254 5253 5251 5250 5249 5247 5246 5244 5242 5240 5238 5236 5235 5233 5232 5230 5228 5227 5225 5224 5222 5220 5218 5216 5214 5213 5212 5211 5211 5211 5212 5213 5215 5218 5221 5224 5228
5499 5495 5491 5486 5482 5478 5473 5468 5463 5458 5452 5447 5441 5435 5429 5423 5416 5410 5403 5396 5390 5383 5376 5369 5362 5355 5348 5342 5335 5328 5321 5313 5306 5300 5293 5287 5281 5276 5271 5266 5262 5259 5256 5254 5251 5248 5246 5244 5242 5241 5239 5238 5237 5236 5234 5233 5231 5229 5227 5225 5224 5223 5222 5220 5219 5217 5216 5214 5213 5211 5210 5209 5208 5208 5207 5207 5207 5208 5209 5210 5212 5214 5217 5220 5224
5492 5487 5483 5478 5473 5469 5464 5459 5454 5449 5443 5438 5432 5426 5420 5413 5407 5400 5393 5386 5379 5372 5365 5358 5351 5343 5336 5329 5322 5314 5306 5299 5292 5285 5279 5273 5267 5262 5257 5253 5250 5246 5244 5241 5239 5236 5234 5232 5230 5229 5227 5226 5225 5224 5223 5222 5219 5218 5216 5215 5214 5213 5212 5211 5209 5208 5207 5206 5205 5203 5203 5202 5202 5202 5202 5202 5203 5203 5205 5206 5208 5210 5213 5216 5219
5484 5479 5475 5470 5465 5460 5455 5450 5445 5440 5434 5429 5423 5417 5410 5403 5397 5390 5383 5375 5367 5360 5353 5346 5338 5331 5324 5316 5309 5301 5293 5285 5277 5271 5265 5259 5254 5249 5245 5241 5237 5234 5231 5229 5226 5224 5222 5219 5218 5217 5216 5215 5214 5213 5212 5210 5208 5207 5205 5204 5205 5204 5202 5201 5200 5200 5199 5198 5196 5196 5196 5196 5196 5197 5197 5198 5198 5199 5200 5202 5204 5206 5209 5211 5215
5477 5472 5467 5462 5457 5452 5447 5441 5436 5431 5425 5419 5413 5407 5400 5393 5386 5379 5372 5364 5356 5348 5341 5334 5325 5318 5311 5303 5296 5289 5281 5272 5265 5258 5252 5247 5242 5237 5233 5229 5226 5222 5220 5217 5214 5212 5210 5207 5206 5205 5204 5203 5203 5202 5201 5199 5197 5196 5194 5194 5195 5195 5194 5192 5192 5192 5191 5190 5189 5189 5189 5190 5191 5191 5192 5193 5194 5194 5195 5197 5199 5202 5204 5206 5209
5470 5465 5460 5455 5449 5444 5439 5433 5427 5421 5415 5409 5403 5396 5390 5383 5376 5369 5362 5354 5347 5338 5330 5323 5314 5306 5298 5290 5283 5275 5268 5260 5253 5246 5241 5235 5230 5226 5221 5217 5214 5211 5208 5205 5203 5200 5198 5196 5194 5193 5192 5191 5191 5191 5190 5188 5187 5186 5184 5184 5185 5186 5185 5184 5184 5184 5183 5182 5182 5182 5183 5185 5185 5187 5187 5188 5189 5190 5190 5192 5194 5197 5199 5202 5205
5462 5458 5453 5447 5441 5435 5429 5424 5418 5412 5406 5400 5393 5386 5379 5372 5366 5359 5352 5344 5336 5328 5319 5311 5303 5294 5286 5278 5270 5262 5254 5247 5241 5235 5230 5224 5219 5215 5210 5206 5203 5200 5197 5194 5192 5189 5187 5185 5183 5182 5181 5180 5180 5180 5179 5178 5177 5176 5175 5175 5175 5177 5178 5177 5176 5176 5176 5176 5176 5177 5178 5179 5180 5181 5182 5183 5184 5185 5186 5187 5189 5192 5195 5198 5201
5455 5450 5444 5439 5433 5427 5421 5415 5410 5404 5398 5392 5385 5378 5371 5363 5355 5349 5341 5332 5324 5315 5307 5298 5289 5281 5273 5264 5257 5249 5242 5235 5229 5223 5218 5213 5209 5204 5200 5196 5192 5189 5186 5183 5181 5178 5176 5174 5172 5171 5170 5170 5170 5169 5168 5167 5167 5166 5166 5166 5166 5169 5171 5169 5169 5170 5170 5170 5171 5172 5173 5174 5175 5176 5177 5177 5178 5180 5181 5182 5185 5188 5191 5194 5197
5446 5441 5436 5430 5424 5418 5413 5407 5402 5396 5390 5384 5377 5369 5362 5354 5346 5338 5330 5321 5312 5303 5294 5285 5276 5268 5259 5251 5243 5236 5229 5223 5217 5212 5207 5202 5197 5193 5189 5185 5182 5179 5175 5172 5170 5167 5165 5164 5162 5161 5160 5160 5160 5159 5158 5158 5157 5157 5157 5157 5159 5161 5163 5162 5162 5163 5164 5164 5165 5167 5168 5169 5170 5171 5171 5172 5173 5175 5176 5178 5181 5184 5187 5190 5193
5438 5432 5427 5421 5415 5410 5404 5399 5393 5386 5380 5374 5367 5359 5352 5344 5336 5328 5319 5310 5301 5291 5282 5273 5264 5255 5247 5238 5230 5223 5217 5211 5205 5199 5195 5190 5185 5181 5177 5173 5170 5168 5165 5162 5159 5157 5155 5153 5152 5151 5150 5150 5150 5149 5149 5149 5149 5149 5149 5150 5152 5155 5156 5155 5156 5157 5158 5159 5160 5162 5163 5164 5165 5166 5166 5167 5168 5170 5172 5175 5178 5180 5183 5186 5189
5430 5425 5419 5413 5406 5400 5394 5388 5383 5376 5369 5362 5355 5348 5340 5333 5325 5318 5309 5300 5291 5281 5271 5262 5253 5243 5234 5226 5218 5211 5204 5199 5193 5187 5183 5178 5173 5169 5166 5162 5158 5156 5154 5151 5149 5147 5146 5143 5142 5141 5141 5141 5141 5141 5140 5141 5141 5141 5142 5144 5146 5148 5149 5149 5150 5151 5152 5153 5155 5157 5158 5160 5161 5161 5162 5163 5164 5166 5169 5171 5174 5176 5179 5182 5185
5421 5416 5411 5405 5399 5392 5384 5377 5371 5365 5358 5352 5345 5337 5329 5321 5314 5306 5298 5289 5280 5270 5260 5251 5242 5232 5223 5214 5206 5199 5192 5186 5181 5176 5171 5166 5162 5159 5155 5151 5147 5144 5142 5140 5138 5137 5137 5134 5133 5132 5132 5132 5133 5133 5133 5133 5134 5134 5136 5138 5139 5141 5142 5143 5144 5145 5147 5148 5149 5151 5153 5155 5156 5157 5158 5159 5161 5163 5166 5168 5170 5173 5176 5178 5181
5413 5407 5402 5396 5390 5384 5377 5370 5363 5356 5349 5342 5335 5327 5319 5311 5303 5295 5287 5277 5268 5258 5249 5240 5230 5220 5211 5202 5194 5187 5181 5175 5170 5165 5161 5156 5152 5149 5145 5141 5137 5134 5131 5129 5127 5127 5127 5126 5124 5124 5124 5124 5125 5125 5125 5126 5127 5128 5130 5131 5133 5135 5136 5137 5139 5140 5142 5143 5144 5146 5148 5150 5152 5152 5154 5156 5158 5160 5162 5164 5166 5169 5172 5174 5176
5404 5399 5393 5388 5381 5374 5368 5361 5355 5348 5341 5334 5327 5319 5310 5301 5293 5285 5276 5266 5256 5246 5237 5228 5219 5210 5201 5193 5184 5176 5170 5164 5159 5155 5151 5146 5142 5139 5135 5132 5129 5126 5123 5120 5118 5118 5118 5117 5116 5116 5116 5116 5117 5118 5118 5120 5121 5122 5124 5126 5128 5129 5130 5132 5134 5135 5137 5138 5139 5141 5143 5146 5147 5149 5150 5152 5154 5156 5158 5160 5162 5165 5167 5169 5173
5397 5391 5386 5380 5373 5366 5358 5351 5345 5339 5332 5326 5319 5310 5301 5293 5284 5275 5266 5256 5245 5235 5226 5217 5209 5200 5192 5184 5175 5167 5160 5154 5149 5145 5142 5138 5135 5131 5127 5123 5121 5118 5115 5112 5111 5110 5109 5109 5108 5108 5109 5109 5110 5111 5112 5113 5115 5117 5118 5120 5122 5123 5124 5127 5129 5130 5132 5133 5135 5137 5139 5141 5144 5145 5147 5149 5150 5152 5154 5156 5158 5160 5163 5166 5169
5391 5385 5379 5373 5367 5359 5351 5343 5336 5329 5322 5316 5310 5302 5292 5283 5274 5266 5256 5246 5235 5225 5215 5207 5198 5190 5182 5174 5166 5159 5151 5144 5140 5136 5133 5130 5127 5124 5120 5116 5113 5111 5108 5106 5103 5102 5101 5101 5101 5101 5102 5103 5103 5105 5106 5108 5110 5111 5113 5115 5116 5118 5120 5122 5124 5126 5127 5129 5131 5133 5135 5137 5139 5141 5143 5145 5147 5149 5150 5152 5154 5157 5159 5162 5165
5385 5379 5373 5366 5360 5353 5345 5336 5328 5321 5314 5306 5299 5292 5283 5274 5265 5256 5246 5236 5226 5215 5206 5197 5189 5181 5173 5166 5158 5150 5143 5136 5131 5128 5125 5122 5120 5118 5114 5110 5107 5104 5102 5099 5097 5095 5095 5094 5094 5095 5096 5096 5097 5099 5101 5103 5105 5106 5108 5110 5112 5113 5115 5117 5119 5121 5123 5125 5127 5128 5130 5133 5135 5137 5139 5141 5143 5145 5146 5148 5150 5153 5156 5158 5162
5378 5371 5365 5359 5352 5345 5338 5329 5321 5313 5305 5297 5289 5282 5274 5266 5256 5247 5237 5227 5217 5207 5197 5188 5180 5172 5164 5157 5150 5143 5136 5129 5124 5121 5117 5115 5114 5112 5108 5104 5101 5098 5095 5093 5091 5089 5089 5088 5088 5089 5090 5091 5092 5094 5096 5098 5100 5101 5103 5105 5107 5109 5111 5113 5114 5116 5119 5121 5123 5124 5126 5129 5131 5133 5135 5138 5140 5141 5143 5145 5147 5150 5152 5155 5159
5370 5364 5358 5351 5345 5337 5330 5322 5314 5305 5297 5289 5280 5272 5264 5256 5247 5238 5228 5217 5207 5198 5189 5180 5172 5164 5156 5149 5143 5136 5130 5124 5119 5114 5110 5107 5106 5105 5102 5098 5095 5093 5090 5087 5086 5084 5083 5083 5083 5084 5085 5086 5087 5089 5091 5093 5094 5096 5098 5101 5103 5105 5107 5109 5110 5112 5115 5117 5119 5121 5123 5125 5127 5129 5132 5134 5136 5138 5140 5142 5144 5146 5149 5152 5156
5362 5356 5350 5344 5338 5330 5323 5315 5307 5298 5289 5281 5272 5262 5253 5245 5236 5227 5218 5208 5198 5189 5181 5173 5165 5156 5149 5141 5135 5130 5125 5120 5114 5109 5105 5101 5100 5099 5096 5092 5090 5088 5084 5082 5080 5079 5079 5079 5079 5079 5080 5081 5083 5084 5086 5088 5090 5091 5094 5096 5098 5101 5103 5105 5106 5108 5110 5113 5115 5117 5119 5121 5123 5126 5128 5130 5133 5134 5137 5139 5141 5144 5147 5150 5153
5355 5348 5342 5336 5330 5323 5315 5308 5300 5292 5283 5274 5264 5254 5244 5235 5226 5217 5209 5200 5191 5181 5173 5165 5157 5149 5142 5135 5128 5123 5119 5115 5111 5105 5100 5095 5094 5094 5091 5086 5084 5083 5080 5077 5076 5075 5075 5075 5075 5075 5076 5077 5079 5080 5082 5084 5085 5087 5089 5092 5094 5096 5098 5101 5103 5105 5107 5109 5111 5113 5115 5117 5119 5122 5124 5126 5129 5131 5133 5135 5138 5141 5144 5146 5149
5348 5341 5335 5329 5322 5315 5308 5299 5291 5283 5275 5266 5256 5246 5236 5226 5217 5209 5200 5192 5184 5175 5166 5158 5150 5143 5135 5129 5123 5118 5114 5110 5107 5102 5096 5088 5085 5087 5087 5083 5078 5077 5076 5074 5072 5071 5071 5070 5070 5071 5072 5073 5075 5077 5078 5080 5082 5083 5085 5088 5090 5092 5094 5097 5099 5101 5103 5105 5107 5109 5111 5113 5115 5117 5120 5122 5124 5127 5129 5132 5134 5137 5140 5143 5145
5341 5334 5328 5321 5314 5307 5300 5292 5283 5274 5266 5257 5248 5238 5228 5218 5209 5200 5192 5184 5177 5169 5161 5152 5144 5137 5130 5124 5119 5114 5110 5106 5102 5099 5095 5088 5080 5077 5079 5078 5075 5072 5071 5069 5068 5067 5067 5066 5066 5067 5068 5070 5071 5073 5075 5076 5078 5080 5082 5084 5086 5088 5091 5093 5095 5097 5099 5101 5103 5105 5107 5109 5111 5113 5115 5117 5120 5122 5125 5128 5131 5133 5136 5139 5142
5334 5328 5322 5315 5307 5299 5292 5284 5275 5266 5258 5249 5240 5231 5221 5211 5201 5192 5183 5175 5169 5162 5155 5147 5139 5131 5125 5119 5114 5110 5106 5102 5098 5094 5092 5089 5082 5074 5071 5071 5071 5069 5067 5066 5064 5063 5063 5063 5063 5064 5065 5066 5068 5069 5071 5073 5075 5077 5078 5080 5082 5085 5087 5089 5091 5093 5095 5097 5099 5101 5103 5105 5107 5109 5112 5114 5116 5119 5122 5125 5127 5130 5132 5135 5138